Location: Unspecified
(0.0000°N, 0.0000°E)
Time: 17:48:16
(UTC+00:00)

deb Blok Kosmos - Pass Details

Date: 21 November 2025
Orbit: 1343 x 1638 km, 56.1° (Epoch: 01 December)

Event Time Altitude Azimuth Distance (km) Brightness Sun altitude
Rises 21:21:40 0° 214° (SSW) 4,861 ? -49.4°
Reaches altitude 10° 21:24:48 10° 215° (SW) 3,875 ? -50.0°
Enters shadow 21:29:46 35° 220° (SW) 2,416 ? -51.1°
